Location: *
(43.9905°S, 176.4941°W)
Time: 18:06:30
(UTC+00:00)

SL-8 R/B - Pass Details

Date: 08 December 2019
Orbit: 656 x 667 km, 48.4° (Epoch: 28 January)

Event Time Altitude Azimuth Distance (km) Brightness Sun altitude
Exits shadow 11:04:42 44° 75° (ENE) 927 4.2 -22.9°
Drops below altitude 10° 11:08:24 10° 109° (ESE) 2,103 6.4 -23.0°
Sets 11:10:48 0° 113° (ESE) 3,018 7.3 -23.0°
